Showing default

COSMOS 894, 9846

Orbit data source: Space-Track

COSMOS 894, 9846 is a payload satellite owned by VMF (CIS) in LEO that was launched on Mon, 21 Feb 1977 UTC via a KOSMOS 11K65M launch vehicle from the Plesetsk Missile And Space Complex (PKMTR). Payload-class satellites include a variety of spacecraft equipped with specific instruments for various scientific and technological missions. These include communications satellites like Starlink; space stations such as the ISS; scientific satellites like the Hubble; Earth observation satellites from companies like Planet Labs, Umbra, and HawkEye 360; GPS; miniature CubeSats for education and research; and military/defense satellites.

Loading next visibility...
Identifier
9846, 1977-013A
Orbit
LEO
Country
Flag of CISCIS
Related business
Manufacturer
Omsk Av. Zav.
Mission
Spacecraft
Bus & Motor
KAUR-1 11F627, Unknown motor
Mass
800 kg wet, 800 kg dry
Launch date (UTC)
1977-02-21 (49 years ago)
Launch vehicle
KOSMOS 11K65M
Launch site
Plesetsk Missile And Space Complex (PKMTR)
Object type
Payload
Rocket body
Debris
Shape & HBR
Unknown
Radar Cross Section
Large (>1 m²)

Expand to show TLE details & history
Last TLE update: 9 hours ago

TLE from 9 hours ago
0 COSMOS 894
1 09846U 77013A   25346.92803913  .00000086  00000-0  75147-4 0  9992
2 09846  82.9438 234.9279 0030248  10.3551   0.7813 13.74188705446592
Epoch: 2025-12-12T22:16Z
TLE epoch observation values (Epoch: 2025-12-12T22:16:22.580Z)
Latitude
11.00748°
Longitude
-179.65635°
Altitude
964.443 km
Speed
7.381 km/s
True Right ascension
15h 45m 12s
True Declination
10° 56' 42"
Sunlit
Object was in daylight at epoch
Visualization orbit readout
Latitude
Unknown
Longitude
Unknown
Altitude
Unknown
Speed
Unknown
Apparent Right ascension
Unknown
Apparent Declination
Unknown
Sunlit
N/A
Visualization observer readout
Local Sidereal Time
05:23:56
Azimuth
Unknown
Elevation
Unknown
Doppler factor
Unknown
Orbital elements
Apogee altitude
1,003.983 km
Perigee altitude
959.459 km
Semi-major axis
7,359.858 km
Eccentricity
0.00302
Inclination
82.9438°
RAAN
234.9279°
Arg. of periapsis
10.3551°
True anomaly
0.78604°
Mean anomaly
0.7813°
Eccentric anomaly
0.78367°
Mean motion
3.43747 °/min
Orbital period
104.73 mins
BSTAR
0.000075147
Loading maneuver chart data...
Computing Atmospheric mass density...
Loading historical data...
Loading historical data...
Loading historical data...
Loading historical data...
Loading historical data...
Loading historical data...
Loading historical data...
Other satellites on launch #13 in the year 1977 (1977-02-21 UTC)

Documentation

Showing up to 5 results
|